Weather History for K3I2 - January, 2013

Change the Weather History Date:

Monday, January 14, 2013

  Actual Average (KHTS) Record (KHTS)
Temperature  
Mean Temperature 38 °F 34 °F  
Max Temperature 44 °F 42 °F 78 °F (1932)
Min Temperature 32 °F 25 °F -12 °F (1912)
Degree Days  
Heating Degree Days 27 32  
Month to date heating degree days 437  
Since 1 July heating degree days 2192  
Cooling Degree Days 0 0  
Month to date cooling degree days 0  
Year to date cooling degree days 0  
Moisture  
Dew Point 31 °F    
Average Humidity 80    
Maximum Humidity 93    
Minimum Humidity 65    
Precipitation  
Precipitation 0.00 in 0.09 in 1.73 in (1951)
Month to date precipitation 1.33  
Year to date precipitation 1.33  
Snow  
Snow 0.00 in - - ()
Month to date snowfall  
Since 1 September snowfall  
Snow Depth -    
Sea Level Pressure  
Sea Level Pressure 30.29 in    
Wind  
Wind Speed 5 mph (NW)    
Max Wind Speed 10 mph    
Max Gust Speed 23 mph    
Visibility 10 miles    
Events      
T = Trace of Precipitation, MM = Missing Value Source: NWS Daily Summary

Daily Weather History Graph

Daily Weather History Graph

Search for Another Location

Airport or City:

Trip Planner

Search our weather history database for the weather conditions in past years. The results will help you decide how hot, cold, wet, or windy it might be!

Date:

Astronomy

Jan. 14, 2013 Rise Set
Actual Time 7:45 AM EST 5:29 PM EST
Civil Twilight 7:16 AM EST 5:58 PM EST
Nautical Twilight 6:43 AM EST 6:31 PM EST
Astronomical Twilight 6:11 AM EST 7:03 PM EST
Moon 9:20 AM EST (1/14) 9:11 PM EST (1/14)
Length of Visible Light 10h 42m
Length of Day
9h 43m
Waxing Crescent, 11% of the Moon is Illuminated
Jan 14
Waxing Crescent
Jan 18
First Quarter
Jan 26
Full
Feb 3
Last Quarter
Feb 10
New

Hourly Weather History & Observations

Time (EST) Temp. Windchill Dew Point Humidity Pressure Visibility Wind Dir Wind Speed Gust Speed Precip Events Conditions
12:15 AM 44.6 °F 40.2 °F 42.8 °F 93% 30.07 in 10.0 mi West 8.1 mph - N/A   Overcast
12:35 AM 42.8 °F 37.0 °F 41.0 °F 93% 30.08 in 7.0 mi WNW 10.4 mph 16.1 mph N/A   Overcast
12:55 AM 42.8 °F 38.0 °F 39.2 °F 87% 30.10 in 7.0 mi WNW 8.1 mph 23.0 mph N/A   Mostly Cloudy
1:15 AM 42.8 °F 38.6 °F 37.4 °F 81% 30.10 in 10.0 mi West 6.9 mph - N/A   Mostly Cloudy
1:35 AM 41.0 °F 39.0 °F 37.4 °F 87% 30.12 in 10.0 mi West 3.5 mph - N/A   Overcast
1:55 AM 41.0 °F 37.1 °F 37.4 °F 87% 30.13 in 10.0 mi WNW 5.8 mph - N/A   Overcast
2:15 AM 41.0 °F 37.1 °F 37.4 °F 87% 30.15 in 10.0 mi West 5.8 mph - N/A   Overcast
2:35 AM 41.0 °F 37.1 °F 37.4 °F 87% 30.15 in 10.0 mi West 5.8 mph - N/A   Overcast
2:55 AM 41.0 °F 37.1 °F 37.4 °F 87% 30.17 in 10.0 mi West 5.8 mph - N/A   Overcast
3:15 AM 41.0 °F 37.1 °F 37.4 °F 87% 30.17 in 10.0 mi WNW 5.8 mph - N/A   Overcast
3:55 AM 41.0 °F 38.0 °F 35.6 °F 81% 30.19 in 10.0 mi WNW 4.6 mph - N/A   Overcast
4:15 AM 41.0 °F - 35.6 °F 81% 30.20 in 10.0 mi Calm Calm - N/A   Overcast
4:35 AM 41.0 °F 38.0 °F 35.6 °F 81% 30.21 in 10.0 mi West 4.6 mph - N/A   Overcast
4:55 AM 41.0 °F 39.0 °F 35.6 °F 81% 30.22 in 10.0 mi West 3.5 mph - N/A   Overcast
5:15 AM 39.2 °F 34.2 °F 35.6 °F 87% 30.22 in 10.0 mi WNW 6.9 mph - N/A   Overcast
5:35 AM 39.2 °F 35.0 °F 33.8 °F 81% 30.24 in 10.0 mi West 5.8 mph - N/A   Overcast
5:55 AM 37.4 °F 34.9 °F 32.0 °F 81% 30.25 in 10.0 mi NW 3.5 mph - N/A   Overcast
6:15 AM 37.4 °F 33.8 °F 32.0 °F 81% 30.25 in 10.0 mi NW 4.6 mph - N/A   Overcast
6:35 AM 37.4 °F 32.8 °F 32.0 °F 81% 30.27 in 10.0 mi WNW 5.8 mph - N/A   Overcast
7:15 AM 35.6 °F 32.8 °F 32.0 °F 87% 30.29 in 10.0 mi NW 3.5 mph - N/A   Overcast
7:35 AM 35.6 °F - 32.0 °F 87% 30.29 in 10.0 mi Calm Calm - N/A   Overcast
7:55 AM 35.6 °F 29.2 °F 32.0 °F 87% 30.31 in 10.0 mi WNW 8.1 mph - N/A   Overcast
8:15 AM 33.8 °F 30.8 °F 30.2 °F 87% 30.33 in 10.0 mi NW 3.5 mph - N/A   Overcast
8:35 AM 33.8 °F - 30.2 °F 87% 30.34 in 10.0 mi Calm Calm - N/A   Mostly Cloudy
8:55 AM 33.8 °F - 28.4 °F 81% 30.35 in 10.0 mi Calm Calm - N/A   Overcast
9:15 AM 33.8 °F 29.6 °F 30.2 °F 87% 30.37 in 10.0 mi WNW 4.6 mph - N/A   Overcast
9:35 AM 33.8 °F 30.8 °F 30.2 °F 87% 30.37 in 10.0 mi NNW 3.5 mph - N/A   Overcast
9:55 AM 35.6 °F 30.7 °F 30.2 °F 81% 30.36 in 10.0 mi WNW 5.8 mph - N/A   Mostly Cloudy
10:15 AM 35.6 °F 31.7 °F 30.2 °F 81% 30.37 in 10.0 mi NW 4.6 mph - N/A   Scattered Clouds
10:35 AM 37.4 °F 32.8 °F 30.2 °F 75% 30.35 in 10.0 mi North 5.8 mph - N/A   Scattered Clouds
10:55 AM 37.4 °F 33.8 °F 30.2 °F 75% 30.36 in 10.0 mi NNW 4.6 mph - N/A   Scattered Clouds
11:15 AM 35.6 °F 32.8 °F 30.2 °F 81% 30.37 in 10.0 mi NW 3.5 mph - N/A   Mostly Cloudy
11:35 AM 37.4 °F 33.8 °F 30.2 °F 75% 30.35 in 10.0 mi NNW 4.6 mph - N/A   Overcast
11:55 AM 35.6 °F 32.8 °F 28.4 °F 75% 30.35 in 10.0 mi North 3.5 mph - N/A   Mostly Cloudy
12:15 PM 37.4 °F 33.8 °F 28.4 °F 70% 30.33 in 10.0 mi NNE 4.6 mph - N/A   Mostly Cloudy
12:35 PM 39.2 °F 34.2 °F 28.4 °F 65% 30.31 in 10.0 mi ENE 6.9 mph - N/A   Scattered Clouds
12:55 PM 39.2 °F 37.0 °F 28.4 °F 65% 30.29 in 10.0 mi ENE 3.5 mph - N/A   Clear
1:15 PM 37.4 °F - 28.4 °F 70% 30.26 in 10.0 mi Calm Calm - N/A   Clear
1:35 PM 37.4 °F 33.8 °F 28.4 °F 70% 30.25 in 10.0 mi ENE 4.6 mph - N/A   Clear
1:55 PM 37.4 °F - 28.4 °F 70% 30.27 in 10.0 mi Calm Calm - N/A   Clear
2:15 PM 37.4 °F - 28.4 °F 70% 30.27 in 10.0 mi Calm Calm - N/A   Clear
2:35 PM 37.4 °F 34.9 °F 28.4 °F 70% 30.27 in 10.0 mi NNE 3.5 mph - N/A   Clear
3:15 PM 37.4 °F 33.8 °F 28.4 °F 70% 30.29 in 10.0 mi NNW 4.6 mph - N/A   Mostly Cloudy
3:55 PM 37.4 °F 34.9 °F 28.4 °F 70% 30.31 in 10.0 mi North 3.5 mph - N/A   Overcast
4:15 PM 35.6 °F - 28.4 °F 75% 30.32 in 10.0 mi Calm Calm - N/A   Scattered Clouds
4:35 PM 35.6 °F 30.7 °F 28.4 °F 75% 30.35 in 10.0 mi NNW 5.8 mph - N/A   Clear
4:55 PM 35.6 °F 31.7 °F 28.4 °F 75% 30.36 in 10.0 mi North 4.6 mph - N/A   Mostly Cloudy
5:35 PM 33.8 °F 27.7 °F 26.6 °F 75% 30.39 in 10.0 mi North 6.9 mph - N/A   Mostly Cloudy
5:55 PM 33.8 °F 30.8 °F 26.6 °F 75% 30.38 in 10.0 mi North 3.5 mph - N/A   Mostly Cloudy
6:15 PM 33.8 °F 29.6 °F 26.6 °F 75% 30.39 in 10.0 mi North 4.6 mph - N/A   Scattered Clouds
6:35 PM 33.8 °F 30.8 °F 26.6 °F 75% 30.40 in 10.0 mi North 3.5 mph - N/A   Clear
6:55 PM 33.8 °F - 26.6 °F 75% 30.41 in 10.0 mi Calm Calm - N/A   Clear
7:15 PM 33.8 °F - 26.6 °F 75% 30.41 in 10.0 mi Calm Calm - N/A   Clear
7:35 PM 33.8 °F - 26.6 °F 75% 30.40 in 10.0 mi Calm Calm - N/A   Clear
7:55 PM 33.8 °F 29.6 °F 26.6 °F 75% 30.36 in 10.0 mi East 4.6 mph - N/A   Clear
8:15 PM 33.8 °F - 28.4 °F 81% 30.35 in 10.0 mi Calm Calm - N/A   Scattered Clouds
8:35 PM 33.8 °F - 28.4 °F 81% 30.35 in 10.0 mi Calm Calm - N/A   Scattered Clouds
8:55 PM 33.8 °F - 28.4 °F 81% 30.34 in 10.0 mi Calm Calm - N/A   Clear
9:15 PM 33.8 °F - 28.4 °F 81% 30.33 in 10.0 mi Calm Calm - N/A   Mostly Cloudy
9:35 PM 33.8 °F - 28.4 °F 81% 30.35 in 10.0 mi Calm Calm - N/A   Overcast
9:55 PM 33.8 °F 29.6 °F 28.4 °F 81% 30.37 in 10.0 mi WNW 4.6 mph - N/A   Overcast
10:15 PM 32.0 °F 28.7 °F 26.6 °F 80% 30.33 in 10.0 mi North 3.5 mph - N/A   Overcast
10:35 PM 32.0 °F - 26.6 °F 80% 30.33 in 10.0 mi Calm Calm - N/A   Overcast
10:55 PM 32.0 °F 28.7 °F 28.4 °F 87% 30.31 in 10.0 mi ENE 3.5 mph - N/A   Overcast
11:15 PM 32.0 °F - 26.6 °F 80% 30.31 in 10.0 mi Calm Calm - N/A   Overcast
11:35 PM 32.0 °F - 28.4 °F 87% 30.31 in 10.0 mi Calm Calm - N/A   Overcast
11:55 PM 33.8 °F - 28.4 °F 81% 30.29 in 10.0 mi Calm Calm - N/A   Overcast